EW9372 Weather Reports


Display with metric or nautical units.
time (UTC)temp
F
wind
direction
speed
MPH
gust
MPH
rain 1hr
in
rain 24hr
in
rain mn
in
humidity
%
barometer
mb
20260831145805 62 191 1.0 1.0 0.00 0.00 0.00 73 1010.3
20260831144329 60 209 2.0 4.0 0.00 0.00 0.00 76 1010.3
20260831143834 60 187 2.0 2.0 0.00 0.00 0.00 76 1010.2
20260831142500 59 178 1.0 3.0 0.00 0.00 0.00 78 1010.0
20260831141957 59 175 1.0 0.0 0.00 0.00 0.00 79 1009.7
20260831141026 58 169 1.0 3.0 0.00 0.00 0.00 79 1009.6
20260831140029 58 173 1.0 1.0 0.00 0.00 0.00 79 1009.6
20260831135157 58 186 1.0 3.0 0.00 0.00 0.00 78 1009.5
20260831134155 58 219 1.0 1.0 0.00 0.00 0.00 77 1009.2
20260831132716 59 190 2.0 5.0 0.00 0.00 0.00 76 1009.1
20260831132219 59 225 2.0 0.0 0.00 0.00 0.00 76 1009.0
20260831131017 59 172 2.0 6.0 0.00 0.00 0.00 74 1008.9
20260831130522 59 196 2.0 2.0 0.00 0.00 0.00 73 1008.8
20260831125719 60 217 1.0 5.0 0.00 0.00 0.00 72 1008.7
20260831125440 60 195 2.0 5.0 0.00 0.00 0.00 71 1008.8
20260831124211 60 190 2.0 5.0 0.00 0.00 0.00 71 1008.7
20260831123710 60 208 2.0 3.0 0.00 0.00 0.00 70 1008.7
20260831122221 60 205 2.0 3.0 0.00 0.00 0.00 69 1008.7
20260831120727 61 186 3.0 6.0 0.00 0.00 0.00 68 1008.5
20260831120220 61 182 2.0 2.0 0.00 0.00 0.00 67 1008.6
20260831120216 61 206 2.0 5.0 0.00 0.00 0.00 68 1008.6
20260831114601 62 203 3.0 9.0 0.00 0.00 0.00 67 1008.6
20260831114059 62 188 3.0 3.0 0.00 0.00 0.00 66 1008.5
20260831112719 62 155 2.0 0.0 0.00 0.00 0.00 66 1008.7
20260831111322 62 190 2.0 1.0 0.00 0.00 0.00 66 1008.7
20260831105950 63 194 2.0 2.0 0.00 0.00 0.00 65 1008.9
20260831105542 63 188 3.0 5.0 0.00 0.00 0.00 64 1008.8
20260831103304 64 189 2.0 1.0 0.00 0.00 0.00 64 1008.7
20260831101841 64 193 2.0 5.0 0.00 0.00 0.00 63 1008.5
20260831101339 64 219 2.0 2.0 0.00 0.00 0.00 63 1008.5
20260831100230 65 184 2.0 4.0 0.00 0.00 0.00 63 1008.5
20260831095730 65 194 2.0 3.0 0.00 0.00 0.00 63 1008.7
20260831094243 65 195 1.0 2.0 0.00 0.00 0.00 62 1008.5
20260831092835 66 190 1.0 1.0 0.00 0.00 0.00 61 1008.6
20260831091512 66 219 1.0 0.0 0.00 0.00 0.00 60 1008.7
20260831090439 67 227 1.0 4.0 0.00 0.00 0.00 60 1008.8
20260831085434 67 213 0.0 1.0 0.00 0.00 0.00 59 1008.8
20260831084932 67 204 1.0 1.0 0.00 0.00 0.00 59 1008.8
20260831083443 68 180 0.0 2.0 0.00 0.00 0.00 60 1008.9
20260831082934 68 180 0.0 2.0 0.00 0.00 0.00 60 1008.9
20260831082430 68 187 1.0 1.0 0.00 0.00 0.00 59 1008.9
20260831081126 69 174 1.0 0.0 0.00 0.00 0.00 58 1008.9
20260831075824 69 176 1.0 0.0 0.00 0.00 0.00 59 1009.0
20260831074635 69 175 1.0 3.0 0.00 0.00 0.00 57 1008.9
20260831074136 69 165 1.0 0.0 0.00 0.00 0.00 57 1008.9
20260831073333 70 182 1.0 3.0 0.00 0.00 0.00 57 1008.8
20260831072333 70 176 1.0 0.0 0.00 0.00 0.00 57 1008.8
20260831071527 70 173 1.0 4.0 0.00 0.00 0.00 56 1008.7
20260831065744 70 178 2.0 0.0 0.00 0.00 0.00 56 1008.8
20260831064248 71 167 2.0 4.0 0.00 0.00 0.00 55 1008.9
20260831063748 71 178 2.0 1.0 0.00 0.00 0.00 54 1008.9
20260831062925 71 181 2.0 2.0 0.00 0.00 0.00 54 1009.0
20260831061324 71 180 2.0 6.0 0.00 0.00 0.00 53 1009.1
20260831060825 72 154 1.0 3.0 0.00 0.00 0.00 52 1008.9
20260831060320 72 169 1.0 3.0 0.00 0.00 0.00 52 1008.9
20260831055146 72 167 2.0 4.0 0.00 0.00 0.00 51 1009.0
20260831054643 72 176 1.0 3.0 0.00 0.00 0.00 51 1009.0
20260831053514 73 167 1.0 2.0 0.00 0.00 0.00 49 1009.0
20260831052032 74 165 1.0 0.0 0.00 0.00 0.00 45 1009.1
20260831050837 75 175 0.0 1.0 0.00 0.00 0.00 43 1009.1
20260831050042 76 189 1.0 1.0 0.00 0.00 0.00 42 1009.2
20260831044156 77 221 1.0 4.0 0.00 0.00 0.00 41 1009.1
20260831043654 77 232 1.0 4.0 0.00 0.00 0.00 40 1009.0
20260831043155 77 227 1.0 2.0 0.00 0.00 0.00 40 1008.9
20260831041945 78 223 1.0 3.0 0.00 0.00 0.00 40 1008.9
20260831041447 78 219 1.0 3.0 0.00 0.00 0.00 40 1008.9
20260831040947 79 221 1.0 0.0 0.00 0.00 0.00 39 1008.8
20260831035755 79 225 4.0 10.0 0.00 0.00 0.00 38 1008.8
20260831035254 80 237 5.0 10.0 0.00 0.00 0.00 38 1008.7
20260831034754 80 248 5.0 7.0 0.00 0.00 0.00 38 1008.7
20260831034301 80 240 5.0 5.0 0.00 0.00 0.00 38 1008.7
20260831033430 82 231 4.0 7.0 0.00 0.00 0.00 37 1008.6
20260831032922 82 204 4.0 7.0 0.00 0.00 0.00 37 1008.6
20260831032418 82 234 4.0 7.0 0.00 0.00 0.00 36 1008.7
20260831030633 84 231 3.0 3.0 0.00 0.00 0.00 34 1008.6
20260831025833 85 232 2.0 3.0 0.00 0.00 0.00 32 1008.6
20260831025601 85 233 2.0 1.0 0.00 0.00 0.00 31 1008.5
20260831023606 86 221 1.0 0.0 0.00 0.00 0.00 30 1008.3
20260831022414 87 203 1.0 1.0 0.00 0.00 0.00 29 1008.3
20260831021919 87 201 0.0 1.0 0.00 0.00 0.00 29 1008.3
20260831020441 88 188 1.0 0.0 0.00 0.00 0.00 28 1008.5
20260831015249 89 230 1.0 0.0 0.00 0.00 0.00 27 1008.4
20260831013828 90 222 2.0 4.0 0.00 0.00 0.00 27 1008.5
20260831013328 90 234 2.0 2.0 0.00 0.00 0.00 26 1008.5
20260831011906 91 234 1.0 2.0 0.00 0.00 0.00 26 1008.5
20260831010435 91 229 1.0 3.0 0.00 0.00 0.00 26 1008.6
20260831004940 91 232 0.0 0.0 0.00 0.00 0.00 24 1008.8
20260831004044 93 246 1.0 4.0 0.00 0.00 0.00 24 1009.1
20260831003040 94 236 1.0 4.0 0.00 0.00 0.00 24 1009.1
20260831002526 94 236 1.0 0.0 0.00 0.00 0.00 24 1009.0
20260831001036 94 236 1.0 4.0 0.00 0.00 0.00 24 1009.0
20260830235951 94 245 3.0 9.0 0.00 0.00 0.00 22 1009.1
20260830235439 94 248 2.0 9.0 0.00 0.00 0.00 23 1009.2
20260830234937 94 232 1.0 5.0 0.00 0.00 0.00 24 1009.2
20260830233521 93 181 1.0 7.0 0.00 0.00 0.00 26 1009.2
20260830233016 94 232 2.0 7.0 0.00 0.00 0.00 26 1009.4
20260830232512 94 235 2.0 0.0 0.00 0.00 0.00 25 1009.5
20260830231523 93 242 2.0 5.0 0.00 0.00 0.00 26 1009.6
20260830225452 93 223 2.0 3.0 0.00 0.00 0.00 25 1009.6
20260830225431 94 222 3.0 2.0 0.00 0.00 0.00 25 1009.8
20260830223646 92 246 1.0 7.0 0.00 0.00 0.00 27 1009.8
20260830223114 92 165 1.0 0.0 0.00 0.00 0.00 27 1009.8
20260830221821 93 46 3.0 6.0 0.00 0.00 0.00 27 1010.2
20260830221327 93 273 2.0 1.0 0.00 0.00 0.00 28 1010.2
20260830220123 93 244 3.0 7.0 0.00 0.00 0.00 28 1010.3
20260830215623 92 233 3.0 7.0 0.00 0.00 0.00 27 1010.4
20260830215123 92 229 3.0 10.0 0.00 0.00 0.00 28 1010.5
20260830214625 92 215 1.0 10.0 0.00 0.00 0.00 28 1010.6
20260830214120 93 238 1.0 6.0 0.00 0.00 0.00 27 1010.7
20260830213616 92 218 1.0 0.0 0.00 0.00 0.00 27 1010.7
20260830212157 92 233 2.0 0.0 0.00 0.00 0.00 27 1010.7
20260830210745 92 345 2.0 6.0 0.00 0.00 0.00 29 1010.9
20260830210242 91 240 2.0 5.0 0.00 0.00 0.00 29 1011.0
20260830204812 92 238 0.0 0.0 0.00 0.00 0.00 29 1011.1
20260830203938 91 225 2.0 0.0 0.00 0.00 0.00 28 1011.3
20260830202343 91 227 2.0 8.0 0.00 0.00 0.00 29 1011.4
20260830201845 90 229 2.0 0.0 0.00 0.00 0.00 30 1011.6
20260830200820 89 242 2.0 0.0 0.00 0.00 0.00 32 1011.5
20260830194831 88 264 0.0 3.0 0.00 0.00 0.00 33 1011.5
20260830194323 87 338 1.0 3.0 0.00 0.00 0.00 34 1011.4
20260830193810 88 207 1.0 1.0 0.00 0.00 0.00 33 1011.5
20260830192451 88 248 2.0 2.0 0.00 0.00 0.00 34 1011.7
20260830191054 87 219 1.0 5.0 0.00 0.00 0.00 35 1011.7
20260830190553 87 222 2.0 1.0 0.00 0.00 0.00 35 1011.9
20260830185014 85 342 2.0 0.0 0.00 0.00 0.00 37 1011.9
20260830183740 85 246 2.0 6.0 0.00 0.00 0.00 37 1012.0
20260830183233 84 238 1.0 4.0 0.00 0.00 0.00 39 1012.0
20260830182728 84 229 1.0 0.0 0.00 0.00 0.00 38 1012.0
20260830181422 81 42 1.0 4.0 0.00 0.00 0.00 42 1011.9
20260830181407 82 225 1.0 0.0 0.00 0.00 0.00 41 1011.9
20260830175818 82 244 2.0 5.0 0.00 0.00 0.00 41 1012.1
20260830175807 81 244 2.0 0.0 0.00 0.00 0.00 41 1012.0
20260830173728 81 234 2.0 6.0 0.00 0.00 0.00 42 1012.1
20260830173229 80 241 1.0 6.0 0.00 0.00 0.00 43 1012.1
20260830172721 78 252 1.0 0.0 0.00 0.00 0.00 44 1012.1
20260830171917 78 134 1.0 2.0 0.00 0.00 0.00 45 1012.1
20260830170912 78 241 2.0 0.0 0.00 0.00 0.00 45 1012.1
20260830165924 77 232 1.0 3.0 0.00 0.00 0.00 46 1012.0
20260830164922 77 230 1.0 3.0 0.00 0.00 0.00 47 1012.0
20260830164414 76 244 2.0 1.0 0.00 0.00 0.00 48 1011.9
20260830163132 73 235 1.0 4.0 0.00 0.00 0.00 51 1011.7
20260830163127 74 228 0.0 2.0 0.00 0.00 0.00 51 1011.8
20260830162125 74 236 2.0 4.0 0.00 0.00 0.00 50 1011.7
20260830162120 73 229 2.0 3.0 0.00 0.00 0.00 51 1011.7
20260830161114 72 223 1.0 3.0 0.00 0.00 0.00 51 1011.9
20260830155641 71 180 1.0 4.0 0.00 0.00 0.00 54 1011.6
20260830155137 71 167 1.0 4.0 0.00 0.00 0.00 54 1011.7
20260830153712 69 175 0.0 3.0 0.00 0.00 0.00 57 1011.8
20260830153214 69 166 1.0 3.0 0.00 0.00 0.00 57 1011.7
20260830153207 69 204 0.0 3.0 0.00 0.00 0.00 56 1012.0
20260830152200 69 207 0.0 3.0 0.00 0.00 0.00 58 1012.0
20260830151635 68 198 0.0 1.0 0.00 0.00 0.00 59 1011.9
20260830150432 67 181 1.0 3.0 0.00 0.00 0.00 60 1011.6